Avalon Airport, Australia

9:23 AM AEDT on January 17, 2017 (GMT +1100)
Avalon

Weather History for YMAV - March, 2014

Change the Weather History Date:

Sunday, March 16, 2014

  Actual Average Record
Temperature  
Mean Temperature 61 °F -  
Max Temperature 69 °F - - ()
Min Temperature 53 °F - - ()
Degree Days  
Heating Degree Days 4    
Growing Degree Days 11 (Base 50)    
Moisture  
Dew Point 45 °F    
Average Humidity 58    
Maximum Humidity 77    
Minimum Humidity 32    
Precipitation  
Precipitation 0.00 in - - ()
Sea Level Pressure  
Sea Level Pressure 29.68 in    
Wind  
Wind Speed 16 mph ()    
Max Wind Speed 31 mph    
Max Gust Speed 40 mph    
Visibility 6.2 miles    
Events Rain    
T = Trace of Precipitation, MM = Missing Value Source: Averaged Metar Reports

Daily Weather History Graph

Daily Weather History Graph

Search for Another Location

Airport or City:

Trip Planner

Search our weather history database for the weather conditions in past years. The results will help you decide how hot, cold, wet, or windy it might be!

Date:

Astronomy

Mar. 16, 2014 Rise Set
Actual Time 7:20 AM AEDT 7:40 PM AEDT
Civil Twilight 6:54 AM AEDT 8:06 PM AEDT
Nautical Twilight 6:23 AM AEDT 8:37 PM AEDT
Astronomical Twilight 5:51 AM AEDT 9:08 PM AEDT
Moon 7:11 PM AEDT 6:39 AM AEDT
Length of Visible Light 13h 12m
Length of Day
12h 19m
Full, 100% of the Moon is Illuminated
Mar 16
Full
Mar 17
Full
Mar 24
Last Quarter
Mar 31
New
Apr 7
First Quarter

Hourly Weather History & Observations

Time (AEDT) Temp. Dew Point Humidity Pressure Visibility Wind Dir Wind Speed Gust Speed Precip Events Conditions
12:00 AM 56 °F 49 °F 70% 29.62 in - WNW 15.0 mph - -   Overcast
12:00 AM 57.2 °F 48.2 °F 72% 29.62 in 6.2 mi WNW 15.0 mph - N/A   Mostly Cloudy
12:30 AM 57.2 °F 48.2 °F 72% 29.62 in 6.2 mi NW 12.7 mph - N/A   Overcast
1:00 AM 55.4 °F 48.2 °F 77% 29.62 in 6.2 mi NW 11.5 mph - N/A   Mostly Cloudy
1:30 AM 55.4 °F 48.2 °F 77% 29.62 in 6.2 mi NW 15.0 mph - N/A   Unknown
2:00 AM 55.4 °F 46.4 °F 72% 29.62 in 6.2 mi WNW 17.3 mph - N/A   Unknown
2:30 AM 55.4 °F 46.4 °F 72% 29.62 in 6.2 mi WNW 13.8 mph - N/A   Unknown
3:00 AM 55 °F 46 °F 64% 29.60 in - WNW 20.7 mph - -  
3:00 AM 55.4 °F 46.4 °F 72% 29.59 in 6.2 mi WNW 20.7 mph - N/A   Unknown
3:30 AM 53.6 °F 46.4 °F 77% 29.59 in 6.2 mi NW 18.4 mph - N/A   Unknown
4:00 AM 53.6 °F 46.4 °F 77% 29.59 in 6.2 mi NW 17.3 mph - N/A   Unknown
4:30 AM 53.6 °F 46.4 °F 77% 29.59 in 6.2 mi NW 20.7 mph - N/A   Unknown
5:00 AM 55.4 °F 44.6 °F 67% 29.59 in 6.2 mi NW 21.9 mph - N/A   Overcast
5:30 AM 55.4 °F 44.6 °F 67% 29.59 in 6.2 mi NW 23.0 mph - N/A   Overcast
6:00 AM 55 °F 45 °F 59% 29.62 in - NW 21.9 mph - -   Overcast
6:00 AM 55.4 °F 44.6 °F 67% 29.62 in 6.2 mi NW 21.9 mph - N/A   Overcast
6:30 AM 55.4 °F 44.6 °F 67% 29.62 in 6.2 mi NW 20.7 mph - N/A   Overcast
7:00 AM 55.4 °F 44.6 °F 67% 29.62 in 6.2 mi NW 19.6 mph - N/A   Overcast
7:30 AM 55.4 °F 44.6 °F 67% 29.65 in 6.2 mi NW 17.3 mph - N/A   Overcast
8:00 AM 55.4 °F 44.6 °F 67% 29.65 in 6.2 mi NW 13.8 mph - N/A   Overcast
8:30 AM 55.4 °F 44.6 °F 67% 29.68 in 6.2 mi NW 12.7 mph - N/A   Overcast
9:00 AM 57 °F 46 °F 57% 29.69 in - NW 10.4 mph - -  
9:00 AM 57.2 °F 46.4 °F 67% 29.68 in 6.2 mi NW 10.4 mph - N/A   Overcast
9:30 AM 57.2 °F 46.4 °F 67% 29.68 in 6.2 mi NW 12.7 mph - N/A   Overcast
10:00 AM 60.8 °F 46.4 °F 59% 29.68 in 6.2 mi NW 19.6 mph - N/A   Overcast
10:30 AM 62.6 °F 48.2 °F 59% 29.68 in 6.2 mi WNW 18.4 mph - N/A   Overcast
11:00 AM 62.6 °F 44.6 °F 52% 29.68 in 6.2 mi WNW 19.6 mph - N/A   Scattered Clouds
11:19 AM 62.6 °F 44.6 °F 52% 29.68 in 6.2 mi WNW 20.7 mph 32.2 mph N/A   Mostly Cloudy
11:30 AM 64.4 °F 44.6 °F 49% 29.68 in 6.2 mi WNW 23.0 mph - N/A   Overcast
12:00 PM 64 °F 44 °F 37% 29.70 in - WNW 23.0 mph - -   Overcast
12:00 PM 64.4 °F 44.6 °F 49% 29.68 in 6.2 mi WNW 23.0 mph - N/A   Mostly Cloudy
12:19 PM 64.4 °F 42.8 °F 45% 29.68 in 6.2 mi WNW 21.9 mph 33.4 mph N/A   Overcast
12:30 PM 66.2 °F 42.8 °F 43% 29.68 in 6.2 mi WNW 26.5 mph - N/A   Mostly Cloudy
1:00 PM 66.2 °F 46.4 °F 49% 29.68 in 6.2 mi West 29.9 mph - N/A   Overcast
1:04 PM 66.2 °F 44.6 °F 46% 29.68 in 6.2 mi West 26.5 mph 38.0 mph N/A   Overcast
1:30 PM 66.2 °F 42.8 °F 43% 29.68 in 6.2 mi West 23.0 mph 34.5 mph N/A   Mostly Cloudy
1:55 PM 68.0 °F 41.0 °F 37% 29.68 in 6.2 mi WNW 23.0 mph 35.7 mph N/A   Mostly Cloudy
2:00 PM 69.8 °F 41.0 °F 35% 29.68 in 6.2 mi WNW 25.3 mph - N/A   Mostly Cloudy
2:06 PM 68.0 °F 41.0 °F 37% 29.68 in 6.2 mi WNW 25.3 mph 40.3 mph N/A   Overcast
2:30 PM 68.0 °F 44.6 °F 43% 29.68 in 6.2 mi West 19.6 mph 31.1 mph N/A   Mostly Cloudy
3:00 PM 65 °F 42 °F 32% 29.69 in - WNW 31.1 mph - -  
3:00 PM 64.4 °F 42.8 °F 45% 29.68 in 6.2 mi WNW 31.1 mph - N/A   Mostly Cloudy
3:14 PM 64.4 °F 42.8 °F 45% 29.68 in 6.2 mi WNW 26.5 mph 38.0 mph N/A   Overcast
3:30 PM 68.0 °F 42.8 °F 40% 29.68 in 6.2 mi West 19.6 mph - N/A   Mostly Cloudy
4:00 PM 68.0 °F 41.0 °F 37% 29.68 in 6.2 mi West 23.0 mph - N/A   Mostly Cloudy
4:06 PM 69.8 °F 42.8 °F 38% 29.68 in 6.2 mi WNW 26.5 mph 38.0 mph N/A   Mostly Cloudy
4:30 PM 68.0 °F 41.0 °F 37% 29.68 in 6.2 mi WNW 25.3 mph - N/A   Scattered Clouds
5:00 PM 60.8 °F 51.8 °F 72% 29.71 in 6.2 mi West 10.4 mph 24.2 mph N/A Rain Light Rain Showers
6:00 PM 61 °F 47 °F 49% 29.74 in - NW 19.6 mph - -   Overcast
6:00 PM 60.8 °F 46.4 °F 59% 29.74 in 6.2 mi NW 19.6 mph - N/A   Overcast
6:30 PM 64.4 °F 44.6 °F 49% 29.74 in 6.2 mi WNW 15.0 mph - N/A   Scattered Clouds
7:00 PM 62.6 °F 44.6 °F 52% 29.74 in 6.2 mi WNW 16.1 mph - N/A   Unknown
7:30 PM 60.8 °F 46.4 °F 59% 29.77 in 6.2 mi WNW 12.7 mph - N/A   Unknown
8:00 PM 59.0 °F 46.4 °F 63% 29.77 in 6.2 mi NW 8.1 mph - N/A   Scattered Clouds
8:30 PM 55.4 °F 44.6 °F 67% 29.77 in 6.2 mi NNW 8.1 mph - N/A   Scattered Clouds
9:00 PM 54 °F 44 °F 59% 29.81 in - NNW 8.1 mph - -  
9:00 PM 53.6 °F 44.6 °F 72% 29.80 in 6.2 mi NNW 8.1 mph - N/A   Unknown
9:30 PM 53.6 °F 42.8 °F 67% 29.80 in 6.2 mi NNW 6.9 mph - N/A   Unknown
10:00 PM 53.6 °F 42.8 °F 67% 29.80 in 6.2 mi NNW 8.1 mph - N/A   Unknown
10:30 PM 55.4 °F 44.6 °F 67% 29.83 in 6.2 mi NNW 10.4 mph - N/A   Overcast
11:00 PM 57.2 °F 46.4 °F 67% 29.83 in 6.2 mi NNW 9.2 mph - N/A   Overcast
11:30 PM 59.0 °F 46.4 °F 63% 29.80 in 6.2 mi NNW 6.9 mph - N/A   Overcast